[[{"header":{"parameterUnit":"m.s-1","parameterCategory":1,"la1":30.2991,"la2":30.254,"lo1":-89.0895,"lo2":-89.0444,"dy":0.0017,"dx":0.0017,"nx":28,"ny":28,"refTime":"2025-11-29T03:00:00:Z","depth":0,"parameterNumber":2,"parameterNumberName":"U-component_of_WINDS"},"data":[0,0,0,0,0,0,0,0,0,0,0,0,0,0,0,0,0,0,0,0,0,0,0,0,0,0,0,0,0,0,0,0,0,0,0,0,0,0,0,0,0,0,0,0,0,0,0,0,0,0,0,0,0,0,0,0,0,0,-2.614,-2.6142,0,-2.6341,-2.6343,-2.6346,-2.6417,-2.6416,-2.6415,-2.6415,-2.6613,-2.6619,-2.6625,0,0,0,0,0,0,0,0,0,0,0,0,0,-2.5811,-2.5816,-2.614,-2.6143,-2.6145,-2.6341,-2.6344,-2.6346,-2.6417,-2.6416,-2.6415,-2.6414,-2.6611,-2.6618,-2.6625,0,0,0,0,0,0,0,0,0,0,0,0,0,-2.5977,-2.5818,-2.614,-2.6204,-2.6212,-2.634,-2.6344,-2.6347,-2.6417,-2.6416,-2.6415,-2.6414,-2.6609,-2.6618,-2.6626,-2.6703,0,0,-2.6654,-2.6658,0,0,0,0,0,0,0,0,-2.5967,-2.5989,-2.6192,-2.62,-2.6209,-2.6353,-2.63,-2.6466,-2.6417,-2.6339,-2.6414,-2.6413,-2.6527,-2.6543,-2.6582,-2.6713,-2.6721,-2.6654,-2.666,-2.6664,-2.6666,0,0,0,0,0,0,0,-2.5956,-2.598,-2.6219,-2.6195,-2.6205,-2.6221,-2.6243,-2.6332,-2.6436,-2.6346,-2.6351,-2.6374,-2.6531,-2.6574,-2.6588,-2.6724,-2.6654,-2.6662,-2.6668,-2.6671,-2.6926,-2.6928,0,0,0,0,0,0,-2.5934,-2.597,-2.6213,-2.6225,-2.6083,-2.6228,-2.6253,-2.6308,-2.6436,-2.6454,-2.6375,-2.6377,-2.6559,-2.6577,-2.6595,-2.6693,-2.6664,-2.6672,-2.6677,-2.6925,-2.6927,-2.6928,0,0,0,0,0,0,-2.5927,-2.5955,-2.6205,-2.61,-2.6133,-2.6234,-2.6296,-2.6312,-2.6355,-2.6458,-2.6476,-2.64,-2.6559,-2.6582,-2.6676,-2.6701,-2.6676,-2.6684,-2.6923,-2.6925,-2.6927,-2.6889,0,0,0,0,0,0,-2.5917,-2.5952,-2.5984,-2.61,-2.6138,-2.6285,-2.6297,-2.6317,-2.6371,-2.6375,-2.6486,-2.6503,-2.656,-2.6662,-2.6685,-2.6713,-2.6691,-2.6921,-2.6924,-2.6927,-2.6889,-2.689,-2.6891,0,0,0,0,0,-2.5905,-2.5964,-2.5985,-2.6014,-2.618,-2.6286,-2.6308,-2.6374,-2.6372,-2.6404,-2.6471,-2.65,-2.6695,-2.6671,-2.6697,-2.6728,-2.692,-2.6923,-2.6927,-2.6888,-2.689,-2.6891,0,0,0,0,0,0,-2.5846,-2.598,-2.6005,-2.6104,-2.6183,-2.6298,-2.634,-2.6373,-2.6452,-2.6453,-2.6529,-2.6554,-2.6641,-2.6694,-2.6666,-2.6809,-2.6809,-2.6817,-2.6771,-2.6773,-2.6774,-2.6759,-2.6699,0,0,0,0,0,-2.5844,-2.5921,-2.6034,-2.6109,-2.6148,-2.6237,-2.6286,-2.633,-2.6414,-2.6447,-2.6521,-2.6599,-2.6679,-2.6729,-2.6807,-2.6897,-2.6921,-2.6931,-2.6932,-2.6932,-2.6938,-2.6988,-2.6994,-2.6939,-2.6939,-2.6939,0,0,-2.5841,-2.5925,-2.5968,-2.61,-2.6167,-2.6242,-2.6265,-2.6344,-2.6401,-2.6459,-2.6553,-2.6609,-2.6702,-2.6794,-2.6838,-2.684,-2.6959,-2.6936,-2.6936,-2.6942,-2.6992,-2.6997,-2.7002,-2.6941,-2.694,-2.694,0,0,-2.5875,-2.5947,-2.6018,-2.6084,-2.6186,-2.6245,-2.6262,-2.6372,-2.6412,-2.6508,-2.6554,-2.662,-2.6755,-2.682,-2.687,-2.6928,-2.6957,-2.6951,-2.6956,-2.7004,-2.7009,-2.7013,-2.7032,-2.7039,-2.6957,-2.6957,-2.6957,0,-2.5858,-2.5977,-2.6049,-2.6127,-2.6182,-2.6241,-2.6312,-2.6373,-2.6494,-2.653,-2.6532,-2.6703,-2.6769,-2.6877,-2.6891,-2.693,-2.695,-2.6939,-2.7003,-2.7007,-2.7012,-2.7032,-2.7039,-2.6956,-2.6956,-2.6956,-2.6956,0,-2.595,-2.6032,-2.6076,-2.6194,-2.6255,-2.6329,-2.641,-2.6463,-2.6502,-2.6559,-2.6655,-2.6738,-2.6834,-2.6862,-2.69,-2.6975,-2.6974,-2.6988,-2.699,-2.7015,-2.7035,-2.7043,-2.6954,-2.6954,-2.6955,-2.6955,0,0,-2.5951,-2.6109,-2.6124,-2.6178,-2.6295,-2.6358,-2.6434,-2.653,-2.6573,-2.6654,-2.6718,-2.6832,-2.6846,-2.6903,-2.6948,-2.6991,-2.7031,-2.7,-2.7004,-2.7002,-2.7117,-2.7104,-2.7112,-2.7051,-2.7053,-2.7054,-2.7108,0,-2.5999,-2.614,-2.6207,-2.6317,-2.6392,-2.6449,-2.6515,-2.6592,-2.6648,-2.6718,-2.6779,-2.6858,-2.6872,-2.6906,-2.6951,-2.7016,-2.7054,-2.7013,-2.7109,-2.7112,-2.7083,-2.7122,-2.711,-2.7157,-2.7117,-2.7118,-2.7119,0,-2.6074,-2.6158,-2.6276,-2.6384,-2.6418,-2.6476,-2.6569,-2.6637,-2.6725,-2.6762,-2.6826,-2.6871,-2.695,-2.6947,-2.7056,-2.7027,-2.707,-2.7108,-2.7111,-2.7122,-2.7116,-2.7132,-2.7174,-2.718,-2.7132,-2.7131,-2.713,0,-2.6062,-2.6204,-2.6293,-2.6337,-2.6466,-2.6505,-2.656,-2.6647,-2.6701,-2.6782,-2.6817,-2.6905,-2.6953,-2.7019,-2.7085,-2.7077,-2.7187,-2.719,-2.7219,-2.7217,-2.7239,-2.7236,-2.7286,-2.7268,-2.7268,-2.7268,-2.7268,0,-2.6108,-2.6177,-2.6289,-2.6343,-2.6422,-2.6498,-2.6573,-2.6632,-2.671,-2.6775,-2.6829,-2.6889,-2.6973,-2.7043,-2.7095,-2.7177,-2.7198,-2.7229,-2.7241,-2.7224,-2.7219,-2.7252,-2.725,-2.727,-2.727,-2.7269,-2.7269,0,-2.6107,-2.6184,-2.6285,-2.6399,-2.6429,-2.6482,-2.6579,-2.6633,-2.6692,-2.6774,-2.6797,-2.6889,-2.6974,-2.7047,-2.7158,-2.7193,-2.7277,-2.7293,-2.7247,-2.7254,-2.7279,-2.7275,-2.735,-2.7363,-2.7337,-2.7337,-2.7337,0,-2.6131,-2.6186,-2.6306,-2.6355,-2.641,-2.6488,-2.6543,-2.6619,-2.6675,-2.678,-2.682,-2.6909,-2.6985,-2.7117,-2.7192,-2.7277,-2.7295,-2.7315,-2.7307,-2.7287,-2.7294,-2.7289,-2.7294,-2.7315,-2.7315,-2.7314,-2.7314,0,-2.6164,-2.62,-2.628,-2.6372,-2.6438,-2.6514,-2.6591,-2.6627,-2.6717,-2.6776,-2.6865,-2.6923,-2.7038,-2.7125,-2.7218,-2.7272,-2.7308,-2.7317,-2.7328,-2.7309,-2.728,-2.7295,-2.7247,-2.7314,-2.7314,-2.7314,-2.7314,-2.7314,-2.6176,-2.6228,-2.6321,-2.6407,-2.6474,-2.6545,-2.6601,-2.6668,-2.6744,-2.6845,-2.6885,-2.6975,-2.7061,-2.719,-2.7244,-2.7314,-2.732,-2.7336,-2.734,-2.7342,-2.7339,-2.727,-2.7331,-2.7332,-2.7332,-2.7332,-2.7332,0,-2.6212,-2.6275,-2.6354,-2.6461,-2.6528,-2.6559,-2.6646,-2.67,-2.6779,-2.6858,-2.6931,-2.7032,-2.7117,-2.7199,-2.7288,-2.7328,-2.7346,-2.7348,-2.7346,-2.7357,-2.7329,-2.7311,-2.7332,-2.7332,-2.7332,-2.7332,-2.7332,-2.7332,-2.6238,-2.6327,-2.6374,-2.6495,-2.6558,-2.6648,-2.6695,-2.676,-2.6824,-2.6935,-2.7007,-2.7061,-2.714,-2.7235,-2.7314,-2.7336,-2.7365,-2.7362,-2.7388,-2.736,-2.7359,-2.7358,-2.7341,-2.7368,-2.7368,-2.741,-2.7411,-2.7411]},{"header":{"parameterUnit":"m.s-1","parameterCategory":1,"la1":30.2991,"la2":30.254,"lo1":-89.0895,"lo2":-89.0444,"dy":0.0017,"dx":0.0017,"nx":28,"ny":28,"refTime":"2025-11-29T03:00:00:Z","depth":0,"parameterNumber":3,"parameterNumberName":"V-component_of_WINDS"},"data":[0,0,0,0,0,0,0,0,0,0,0,0,0,0,0,0,0,0,0,0,0,0,0,0,0,0,0,0,0,0,0,0,0,0,0,0,0,0,0,0,0,0,0,0,0,0,0,0,0,0,0,0,0,0,0,0,0,0,-0.5786,-0.5789,0,-0.6022,-0.6025,-0.6028,-0.6164,-0.6165,-0.6165,-0.6166,-0.6411,-0.6417,-0.6423,0,0,0,0,0,0,0,0,0,0,0,0,0,-0.5457,-0.5462,-0.5786,-0.5789,-0.5792,-0.6022,-0.6025,-0.6028,-0.6164,-0.6165,-0.6165,-0.6166,-0.6409,-0.6417,-0.6424,0,0,0,0,0,0,0,0,0,0,0,0,0,-0.5637,-0.5464,-0.5785,-0.5887,-0.5899,-0.6021,-0.6025,-0.6029,-0.6164,-0.6165,-0.6165,-0.6166,-0.6407,-0.6416,-0.6425,-0.6466,0,0,-0.6453,-0.6457,0,0,0,0,0,0,0,0,-0.5627,-0.5649,-0.5869,-0.588,-0.5893,-0.6064,-0.5999,-0.6176,-0.6164,-0.6063,-0.6166,-0.6166,-0.6296,-0.6314,-0.6357,-0.6478,-0.6488,-0.6454,-0.6459,-0.6463,-0.6466,0,0,0,0,0,0,0,-0.5614,-0.564,-0.588,-0.5872,-0.5887,-0.5922,-0.5949,-0.6033,-0.6172,-0.6072,-0.6082,-0.6108,-0.6302,-0.6348,-0.6364,-0.6492,-0.6453,-0.6461,-0.6467,-0.6471,-0.6659,-0.6659,0,0,0,0,0,0,-0.5585,-0.5628,-0.5872,-0.5887,-0.5759,-0.5928,-0.5957,-0.6009,-0.6172,-0.6197,-0.6107,-0.6114,-0.6332,-0.6353,-0.6373,-0.6432,-0.6463,-0.6471,-0.6477,-0.666,-0.6659,-0.6659,0,0,0,0,0,0,-0.5577,-0.5605,-0.5863,-0.576,-0.5796,-0.5933,-0.5989,-0.6013,-0.6058,-0.6199,-0.6224,-0.6128,-0.6333,-0.636,-0.6442,-0.6443,-0.6476,-0.6484,-0.666,-0.666,-0.6659,-0.6551,0,0,0,0,0,0,-0.5567,-0.5601,-0.5617,-0.576,-0.5801,-0.5926,-0.5989,-0.6017,-0.6073,-0.6084,-0.6225,-0.6249,-0.6336,-0.6427,-0.6451,-0.6456,-0.6491,-0.6661,-0.666,-0.6659,-0.6555,-0.6546,-0.6539,0,0,0,0,0,-0.5555,-0.5578,-0.5617,-0.5646,-0.5823,-0.5926,-0.5949,-0.6048,-0.6073,-0.6091,-0.6181,-0.6244,-0.6438,-0.6435,-0.6462,-0.647,-0.6661,-0.666,-0.6659,-0.6558,-0.6548,-0.6539,0,0,0,0,0,0,-0.5434,-0.5598,-0.5644,-0.5714,-0.5804,-0.5948,-0.5974,-0.6034,-0.6121,-0.6127,-0.6247,-0.6278,-0.6348,-0.6418,-0.641,-0.6519,-0.6557,-0.6561,-0.6471,-0.6462,-0.6454,-0.6436,-0.6499,0,0,0,0,0,-0.5414,-0.5482,-0.5624,-0.5672,-0.5715,-0.5836,-0.5884,-0.5953,-0.6052,-0.6092,-0.6188,-0.6283,-0.6366,-0.6418,-0.6502,-0.6565,-0.6599,-0.6585,-0.6577,-0.6569,-0.6572,-0.6612,-0.6607,-0.6656,-0.6656,-0.6656,0,0,-0.5377,-0.5475,-0.5511,-0.565,-0.5728,-0.5797,-0.5868,-0.5938,-0.5991,-0.6103,-0.6186,-0.6259,-0.6374,-0.6447,-0.6484,-0.6507,-0.6566,-0.6568,-0.6561,-0.6568,-0.661,-0.6605,-0.6601,-0.6655,-0.6655,-0.6655,0,0,-0.5343,-0.5424,-0.5473,-0.555,-0.5667,-0.5748,-0.5759,-0.5895,-0.5948,-0.6033,-0.6118,-0.6184,-0.6324,-0.6402,-0.646,-0.6456,-0.6518,-0.648,-0.6439,-0.6477,-0.6473,-0.647,-0.6469,-0.6468,-0.6482,-0.6482,-0.6482,0,-0.5282,-0.5388,-0.5491,-0.5557,-0.5616,-0.5719,-0.577,-0.5841,-0.5979,-0.6019,-0.6042,-0.622,-0.6304,-0.6397,-0.6396,-0.644,-0.6458,-0.6465,-0.6465,-0.6463,-0.6462,-0.6463,-0.6462,-0.6477,-0.6477,-0.6478,-0.6478,0,-0.5307,-0.5379,-0.5405,-0.5535,-0.5598,-0.5655,-0.5769,-0.582,-0.5882,-0.5961,-0.6047,-0.6151,-0.6258,-0.6286,-0.6348,-0.6388,-0.6399,-0.6442,-0.6483,-0.645,-0.6453,-0.6454,-0.6469,-0.6471,-0.6473,-0.6474,0,0,-0.5204,-0.539,-0.5398,-0.5458,-0.5596,-0.5654,-0.5718,-0.5821,-0.5863,-0.5955,-0.6012,-0.6128,-0.6169,-0.6235,-0.6307,-0.634,-0.6331,-0.638,-0.6384,-0.6367,-0.6382,-0.6348,-0.6347,-0.6372,-0.6373,-0.6373,-0.6372,0,-0.519,-0.5307,-0.5402,-0.5484,-0.5553,-0.5652,-0.5708,-0.5799,-0.5874,-0.5944,-0.6029,-0.6109,-0.6156,-0.6197,-0.6233,-0.6324,-0.6335,-0.6325,-0.6428,-0.643,-0.6396,-0.6348,-0.6313,-0.6307,-0.6374,-0.6374,-0.6375,0,-0.519,-0.5277,-0.5365,-0.5496,-0.5529,-0.5576,-0.5679,-0.5745,-0.5851,-0.5903,-0.5976,-0.6051,-0.6124,-0.6158,-0.626,-0.6251,-0.6299,-0.635,-0.6352,-0.6366,-0.64,-0.6361,-0.6308,-0.6306,-0.6377,-0.6377,-0.6377,0,-0.5106,-0.5246,-0.5317,-0.5366,-0.552,-0.5551,-0.5617,-0.5723,-0.578,-0.587,-0.5908,-0.6006,-0.606,-0.6135,-0.6235,-0.625,-0.6328,-0.6369,-0.6374,-0.6372,-0.6386,-0.6384,-0.634,-0.6416,-0.6416,-0.6416,-0.6416,0,-0.5081,-0.5131,-0.5281,-0.5325,-0.5385,-0.5494,-0.5551,-0.5626,-0.5719,-0.578,-0.5873,-0.5929,-0.6058,-0.6129,-0.6208,-0.6282,-0.6305,-0.6351,-0.6371,-0.6343,-0.6337,-0.6376,-0.6379,-0.6416,-0.6416,-0.6416,-0.6416,0,-0.4997,-0.5099,-0.5184,-0.5322,-0.5358,-0.5396,-0.5516,-0.5563,-0.5643,-0.5719,-0.5744,-0.587,-0.5959,-0.6066,-0.6191,-0.6244,-0.631,-0.6341,-0.6274,-0.6286,-0.6285,-0.6283,-0.6264,-0.6268,-0.634,-0.6339,-0.6338,0,-0.4974,-0.5015,-0.5158,-0.5205,-0.5267,-0.5342,-0.54,-0.551,-0.5566,-0.569,-0.5722,-0.5818,-0.5901,-0.6039,-0.6143,-0.6238,-0.6272,-0.6259,-0.6287,-0.6257,-0.6273,-0.6269,-0.6274,-0.6251,-0.625,-0.6249,-0.6248,0,-0.4923,-0.4972,-0.5051,-0.5147,-0.5213,-0.5295,-0.5381,-0.5415,-0.5543,-0.5602,-0.5693,-0.5757,-0.5883,-0.5978,-0.6087,-0.6157,-0.6224,-0.6238,-0.6245,-0.6216,-0.6175,-0.6197,-0.6253,-0.6238,-0.6239,-0.624,-0.624,-0.6241,-0.487,-0.4911,-0.5018,-0.5103,-0.5179,-0.5257,-0.5308,-0.5394,-0.5472,-0.5582,-0.5643,-0.5733,-0.584,-0.5992,-0.606,-0.6133,-0.6157,-0.6166,-0.6168,-0.6169,-0.616,-0.6163,-0.6153,-0.6154,-0.6154,-0.6155,-0.6155,0,-0.4824,-0.4898,-0.4975,-0.5091,-0.5158,-0.5214,-0.5313,-0.5365,-0.5443,-0.5536,-0.5615,-0.572,-0.5812,-0.5923,-0.6023,-0.606,-0.6094,-0.6083,-0.6081,-0.6097,-0.6133,-0.6118,-0.6054,-0.6054,-0.6054,-0.6054,-0.6054,-0.6054,-0.4808,-0.488,-0.4942,-0.5053,-0.5128,-0.5215,-0.5266,-0.534,-0.5414,-0.5527,-0.5604,-0.5675,-0.5776,-0.5884,-0.5971,-0.6002,-0.6034,-0.6014,-0.6053,-0.6085,-0.6094,-0.6102,-0.6088,-0.602,-0.602,-0.6011,-0.6011,-0.6011]}]]